STARLINK-11500, 62472

Orbit data source: Space-Track

STARLINK-11500, 62472 is a payload satellite owned by SpaceX/Seattle (US) in LEO that was launched on Tue, 31 Dec 2024 UTC via an FALCON 9 launch vehicle from the Air Force Eastern Test Range (AFETR). Payloads include a variety of satellites, spacecraft, and rockets equipped with specific instruments for various scientific and technological missions. These include communications satellites like Starlink; space stations such as the ISS; scientific satellites like the Hubble; Earth observation satellites from companies like Planet Labs, Umbra, and HawkEye 360; GPS; miniature CubeSats for education and research; and military/defense satellites.

Loading next visibility...
STARLINK-11500 details
Identifier
62472, 2024-254L
Orbit
LEO
Last TLE update23 hours ago
Origin
Flag of USSpaceX/Seattle (US)
ManufacturerSpaceX/Seattle
MissionOperational Commercial Communications
Bus & MotorSTARLINK V2M, Unknown motor
Mass730 kg wet, ~700 kg dry
Launch date (UTC)
2024-12-31 (1 month ago)
Launch vehicle
FALCON 9
Launch site
Air Force Eastern Test Range (AFETR)
Object type
Payload
Rocket body
Debris
Shape & HBRBox + 2 Pan, 29 m
Radar Cross Section36.964 m², Large (>1 m²)

Expand to show TLE details & history

TLE from 23 hours ago
0 STARLINK-11500
1 62472U 24254L   25035.24037347  .00000943  00000-0  82786-5 0  9995
2 62472  43.0034 105.7591 0000801 246.8054 113.2732 15.77858784  6198
Epoch: 2025-02-04T05:46Z
Definitive object data (Epoch: 2025-02-04T05:46:08.267Z)
Latitude-0.00003°
Longitude-115.42388°
Altitude336.492 km
Speed7.709 km/s
True Right ascension07h 03m 02s
True Declination0° 00' 00"
Sunlit
Object was in full shadow at TLE epoch
Visualization TLE readout
Latitude38.04979°
Longitude-64.71406°
Altitude339.061 km
Speed7.711 km/s
Apparent Right ascension14h 21m 03s
Apparent Declination0° 35' 45"
Sunlit
Object is in full shadow
Visualization observer readout
Local Sidereal Time06:51:33
Azimuth74.742° E
Elevation-16.576°
Doppler factor1
Orbital elements
Apogee altitude339.033 km
Perigee altitude337.957 km
Semi-major axis6,716.632 km
Eccentricity0.0000801
Inclination43.0034°
RAAN105.7591°
Arg. of periapsis246.8054°
True anomaly113.28163°
Mean anomaly113.2732°
Eccentric anomaly113.27742°
Mean motion3.9429 °/min
BSTAR0.0000082786
Orbital period91.3 mins
Loading maneuver chart data...
Loading historical data...
Loading historical data...
Loading historical data...
Loading historical data...
Loading historical data...
Loading historical data...
Loading historical data...

STARLINK-11500 Visibility forecast

Observer location: undefined°, undefined

Span
Click to sort rows by Start time (UTC) header in descending order
Start Az.
Max El. time (UTC)
Max El. Az.
Max El.
End time (UTC)
End Az.
4 mins2025-02-05 07:48:39.115Z215.5° SW2025-02-05 07:50:39.115Z162.582° S28.378°2025-02-05 07:52:39.115Z93.675° ESE
4 mins2025-02-05 11:00:39.115Z299.758° NW2025-02-05 11:02:39.115Z28.672° NE33.68°2025-02-05 11:04:39.115Z78.094° E
4 mins2025-02-05 12:36:39.115Z276.485° WNW2025-02-05 12:37:39.115Z248.307° W38.385°2025-02-05 12:40:39.115Z121.649° SE
|